Hourly Data Report for March 15, 2017

All times are specified in Local Standard Time (LST). Add 1 hour to adjust for Daylight Saving Time where and when it is observed.

TORONTO CITY
ONTARIO

43°40'00.000" N
79°24'00.000" W
112.50 m
6158355
71508
XTO

Download Data

Hourly Data (March 2017)
Hourly Data Report for March 15, 2017
TIME Temp Definition
°C
Dew Point Definition
°C
Rel Hum Definition
%
Wind Dir Definition
10's deg

Wind Spd Definition
km/h
Visibility Definition
km
Stn Press Definition
kPa
Hmdx Definition


Wind Chill Definition


Weather Definition


00:00 -8.6 -13.6 67 LegendMM LegendMM   99.69     LegendNANA
01:00 -8.9 -13.7 68 LegendMM LegendMM   99.64     LegendNANA
02:00 -9.1 -14.4 66 LegendMM LegendMM   99.59     LegendNANA
03:00 -9.3 -14.5 65 LegendMM LegendMM   99.47     LegendNANA
04:00 -9.0 -13.4 70 LegendMM LegendMM   99.42     LegendNANA
05:00 -8.9 -13.1 71 LegendMM LegendMM   99.43     LegendNANA
06:00 -8.8 -12.4 75 LegendMM LegendMM   99.45     LegendNANA
07:00 -8.6 -12.1 76 LegendMM LegendMM   99.48     LegendNANA
08:00 -8.1 -11.5 77 LegendMM LegendMM   99.51     LegendNANA
09:00 -7.6 -12.7 67 LegendMM LegendMM   99.53     LegendNANA
10:00 -6.2 -13.1 58 LegendMM LegendMM   99.56     LegendNANA
11:00 -5.2 -14.3 49 LegendMM LegendMM   99.57     LegendNANA
12:00 -4.8 -13.7 50 LegendMM LegendMM   99.64     LegendNANA
13:00 -4.4 -13.7 48 LegendMM LegendMM   99.65     LegendNANA
14:00 -3.9 -13.3 48 LegendMM LegendMM   99.70     LegendNANA
15:00 -3.5 -14.0 44 LegendMM LegendMM   99.73     LegendNANA
16:00 -3.4 -13.7 45 LegendMM LegendMM   99.79     LegendNANA
17:00 -3.2 -13.7 44 LegendMM LegendMM   99.85     LegendNANA
18:00 -3.0 -14.2 42 LegendMM LegendMM   99.94     LegendNANA
19:00 -3.4 -14.8 41 LegendMM LegendMM   100.01     LegendNANA
20:00 -4.1 -13.3 48 LegendMM LegendMM   100.06     LegendNANA
21:00 -4.1 -13.2 49 LegendMM LegendMM   100.12     LegendNANA
22:00 -4.1 -14.1 46 LegendMM LegendMM   100.14     LegendNANA
23:00 -4.6 -13.7 49 LegendMM LegendMM   100.14     LegendNANA

Notes on Data Quality.

Legend

  • E = Estimated
  • M = Missing
  • NA = Not Available
Date modified: